Weather History for Antigo, WI

Change the Weather History Date:

Monday, November 18, 2013

  Actual Average Record
Temperature  
Mean Temperature 28 °F -  
Max Temperature 34 °F 38 °F 66 °F (1953)
Min Temperature 23 °F 23 °F -1 °F (1961)
Degree Days  
Heating Degree Days 36    
Moisture  
Dew Point 20 °F    
Average Humidity 72    
Maximum Humidity 85    
Minimum Humidity 63    
Precipitation  
Precipitation 0.00 in - - ()
Sea Level Pressure  
Sea Level Pressure 29.88 in    
Wind  
Wind Speed 20 mph (WNW)    
Max Wind Speed 30 mph    
Max Gust Speed 43 mph    
Visibility 10 miles    
Events Snow    
Averages and records for this station are not official NWS values.
T = Trace of Precipitation, MM = Missing Value Source: NWS Daily Summary

Daily Weather History Graph

Daily Weather History Graph

Search for Another Location

Airport:

Trip Planner

Search our weather history database for the weather conditions in past years. The results will help you decide how hot, cold, wet, or windy it might be!

Date:

Astronomy

Nov. 18, 2013 Rise Set
Actual Time 6:58 AM CST 4:23 PM CST
Civil Twilight 6:26 AM CST 4:56 PM CST
Nautical Twilight 5:50 AM CST 5:32 PM CST
Astronomical Twilight 5:15 AM CST 6:06 PM CST
Moon 5:25 PM CST (11/18) 7:48 AM CST (11/18)
Length of Visible Light 10h 29m
Length of Day
9h 25m
Full, 99% of the Moon is Illuminated
Nov 18
Full
Nov 25
Last Quarter
Dec 2
New
Dec 9
First Quarter
Dec 17
Full

Hourly Weather History & Observations

Time (CST) Temp. Windchill Dew Point Humidity Pressure Visibility Wind Dir Wind Speed Gust Speed Precip Events Conditions
12:15 AM 34.3 °F 22.9 °F 28.6 °F 79% 29.50 in 10.0 mi West 20.7 mph 34.5 mph N/A   Overcast
12:35 AM 33.3 °F 22.5 °F 28.4 °F 82% 29.52 in 10.0 mi West 17.3 mph 33.4 mph N/A   Overcast
12:55 AM 32.2 °F 19.1 °F 28.0 °F 85% 29.54 in 10.0 mi West 24.2 mph 34.5 mph N/A   Overcast
1:15 AM 31.8 °F 17.6 °F 26.8 °F 82% 29.55 in 10.0 mi West 28.8 mph 34.5 mph N/A   Overcast
1:35 AM 31.5 °F 16.9 °F 26.1 °F 80% 29.56 in 10.0 mi West 29.9 mph 36.8 mph N/A   Overcast
1:55 AM 31.1 °F 18.6 °F 25.7 °F 80% 29.56 in 10.0 mi WNW 20.7 mph 33.4 mph N/A   Overcast
2:15 AM 31.1 °F 18.3 °F 25.9 °F 81% 29.57 in 10.0 mi WNW 21.9 mph 33.4 mph N/A   Overcast
2:35 AM 30.9 °F 18.4 °F 26.2 °F 83% 29.58 in 10.0 mi WNW 20.7 mph 25.3 mph N/A   Overcast
2:55 AM 30.7 °F 17.8 °F 26.4 °F 84% 29.59 in 10.0 mi WNW 21.9 mph 29.9 mph N/A   Overcast
3:15 AM 30.4 °F 16.5 °F 25.7 °F 83% 29.59 in 10.0 mi WNW 25.3 mph 36.8 mph N/A   Overcast
3:35 AM 30.2 °F 17.4 °F 25.7 °F 83% 29.60 in 10.0 mi WNW 20.7 mph 28.8 mph N/A   Overcast
3:55 AM 30.0 °F 17.5 °F 24.1 °F 79% 29.61 in 10.0 mi WNW 19.6 mph 34.5 mph N/A   Overcast
4:15 AM 29.7 °F 16.1 °F 24.6 °F 81% 29.62 in 10.0 mi WNW 23.0 mph 31.1 mph N/A   Overcast
4:35 AM 29.1 °F 14.0 °F 23.9 °F 81% 29.63 in 10.0 mi WNW 28.8 mph 39.1 mph N/A   Overcast
4:55 AM 28.9 °F 15.4 °F 22.6 °F 77% 29.64 in 10.0 mi WNW 21.9 mph 38.0 mph N/A   Overcast
5:15 AM 28.9 °F 15.1 °F 21.6 °F 74% 29.65 in 10.0 mi WNW 23.0 mph 34.5 mph N/A   Overcast
5:35 AM 27.5 °F 15.4 °F 22.8 °F 83% 29.66 in 10.0 mi NW 16.1 mph 36.8 mph N/A   Overcast
5:55 AM 27.5 °F 11.5 °F 22.5 °F 81% 29.67 in 10.0 mi WNW 29.9 mph 38.0 mph N/A   Overcast
6:15 AM 27.5 °F 12.6 °F 19.0 °F 71% 29.68 in 10.0 mi WNW 25.3 mph 42.6 mph N/A   Overcast
6:35 AM 27.5 °F 11.5 °F 18.7 °F 69% 29.69 in 10.0 mi WNW 29.9 mph 41.4 mph N/A   Overcast
6:55 AM 27.5 °F 13.9 °F 19.2 °F 71% 29.70 in 10.0 mi WNW 20.7 mph 38.0 mph N/A   Overcast
7:15 AM 27.1 °F 14.1 °F 21.0 °F 78% 29.71 in 10.0 mi WNW 18.4 mph 31.1 mph N/A   Overcast
7:35 AM 26.6 °F 13.1 °F 21.7 °F 82% 29.72 in 5.0 mi WNW 19.6 mph 29.9 mph N/A Snow Light Snow
7:55 AM 26.6 °F 11.7 °F 19.9 °F 76% 29.74 in 10.0 mi WNW 24.2 mph 33.4 mph N/A   Overcast
8:15 AM 27.0 °F 11.3 °F 18.0 °F 69% 29.75 in 10.0 mi NW 27.6 mph 34.5 mph N/A   Overcast
8:35 AM 27.1 °F 13.1 °F 16.7 °F 65% 29.77 in 10.0 mi WNW 21.9 mph 40.3 mph N/A   Overcast
8:55 AM 27.3 °F 13.6 °F 18.5 °F 69% 29.78 in 10.0 mi WNW 20.7 mph 31.1 mph N/A   Overcast
9:15 AM 27.1 °F 12.1 °F 18.0 °F 68% 29.79 in 10.0 mi WNW 25.3 mph 36.8 mph N/A   Overcast
9:35 AM 27.1 °F 12.4 °F 18.1 °F 69% 29.81 in 10.0 mi WNW 24.2 mph 36.8 mph N/A   Overcast
9:55 AM 27.5 °F 13.9 °F 18.3 °F 68% 29.83 in 10.0 mi NW 20.7 mph 33.4 mph N/A   Overcast
10:15 AM 27.5 °F 13.2 °F 18.7 °F 69% 29.85 in 10.0 mi WNW 23.0 mph 28.8 mph N/A   Overcast
10:35 AM 27.5 °F 13.5 °F 18.9 °F 70% 29.86 in 10.0 mi WNW 21.9 mph 28.8 mph N/A   Overcast
10:55 AM 27.5 °F 14.2 °F 18.5 °F 69% 29.87 in 10.0 mi WNW 19.6 mph 26.5 mph N/A   Overcast
11:15 AM 28.0 °F 13.9 °F 18.7 °F 68% 29.88 in 10.0 mi WNW 23.0 mph 28.8 mph N/A   Overcast
11:35 AM 28.4 °F 16.2 °F 19.0 °F 68% 29.89 in 10.0 mi WNW 17.3 mph 26.5 mph N/A   Overcast
11:55 AM 28.4 °F 15.1 °F 18.5 °F 66% 29.90 in 10.0 mi NW 20.7 mph 33.4 mph N/A   Overcast
12:15 PM 28.4 °F 15.4 °F 18.3 °F 66% 29.91 in 10.0 mi NW 19.6 mph 33.4 mph N/A   Overcast
12:35 PM 28.9 °F 16.9 °F 18.1 °F 64% 29.92 in 10.0 mi WNW 17.3 mph 33.4 mph N/A   Overcast
12:55 PM 29.1 °F 16.7 °F 18.7 °F 65% 29.93 in 10.0 mi NW 18.4 mph 28.8 mph N/A   Overcast
1:15 PM 28.9 °F 15.4 °F 18.1 °F 64% 29.94 in 10.0 mi NW 21.9 mph 29.9 mph N/A   Overcast
1:35 PM 28.4 °F 15.4 °F 18.1 °F 65% 29.95 in 10.0 mi WNW 19.6 mph 29.9 mph N/A   Overcast
1:55 PM 28.4 °F 18.0 °F 18.3 °F 66% 29.97 in 10.0 mi NW 12.7 mph 26.5 mph N/A   Overcast
2:15 PM 28.2 °F 15.9 °F 17.6 °F 64% 29.98 in 10.0 mi WNW 17.3 mph 25.3 mph N/A   Overcast
2:35 PM 28.2 °F 16.8 °F 18.0 °F 65% 29.99 in 10.0 mi NW 15.0 mph 23.0 mph N/A   Overcast
2:55 PM 28.0 °F 15.7 °F 17.6 °F 65% 30.00 in 10.0 mi NW 17.3 mph 23.0 mph N/A   Overcast
3:15 PM 28.0 °F 16.5 °F 17.1 °F 63% 30.01 in 10.0 mi NW 15.0 mph 24.2 mph N/A   Overcast
3:35 PM 28.0 °F 15.3 °F 17.4 °F 64% 30.02 in 10.0 mi NW 18.4 mph 27.6 mph N/A   Overcast
3:55 PM 27.5 °F 17.4 °F 17.2 °F 65% 30.02 in 10.0 mi NW 11.5 mph - N/A   Overcast
4:15 PM 27.5 °F 16.3 °F 17.6 °F 66% 30.03 in 10.0 mi WNW 13.8 mph 20.7 mph N/A   Overcast
4:35 PM 27.5 °F 17.4 °F 17.4 °F 66% 30.04 in 10.0 mi NW 11.5 mph 21.9 mph N/A   Overcast
4:55 PM 27.5 °F 15.4 °F 18.0 °F 67% 30.05 in 10.0 mi NW 16.1 mph 21.9 mph N/A   Overcast
5:15 PM 27.5 °F 15.9 °F 17.4 °F 66% 30.06 in 10.0 mi NW 15.0 mph 25.3 mph N/A   Overcast
5:35 PM 27.5 °F 16.3 °F 17.4 °F 66% 30.07 in 10.0 mi NW 13.8 mph 19.6 mph N/A   Overcast
5:55 PM 27.5 °F 15.4 °F 18.3 °F 68% 30.08 in 10.0 mi WNW 16.1 mph 23.0 mph N/A   Overcast
6:15 PM 27.1 °F 15.4 °F 17.8 °F 68% 30.09 in 10.0 mi WNW 15.0 mph 21.9 mph N/A   Overcast
6:35 PM 27.0 °F 16.7 °F 17.6 °F 68% 30.09 in 10.0 mi NW 11.5 mph 19.6 mph N/A   Overcast
6:55 PM 26.6 °F 16.2 °F 17.4 °F 68% 30.10 in 10.0 mi NW 11.5 mph 16.1 mph N/A   Overcast
7:15 PM 26.4 °F 16.0 °F 16.5 °F 66% 30.10 in 10.0 mi NW 11.5 mph 19.6 mph N/A   Overcast
7:35 PM 26.4 °F 18.9 °F 17.6 °F 69% 30.10 in 10.0 mi NW 6.9 mph - N/A   Overcast
7:55 PM 26.4 °F 16.6 °F 17.2 °F 68% 30.11 in 10.0 mi NW 10.4 mph - N/A   Overcast
8:15 PM 26.4 °F 16.0 °F 17.4 °F 69% 30.12 in 10.0 mi NW 11.5 mph - N/A   Overcast
8:35 PM 26.2 °F 16.4 °F 17.6 °F 70% 30.13 in 10.0 mi NW 10.4 mph 17.3 mph N/A   Overcast
8:55 PM 25.7 °F 15.1 °F 17.4 °F 71% 30.13 in 10.0 mi NW 11.5 mph - N/A   Overcast
9:15 PM 25.0 °F 15.5 °F 16.9 °F 71% 30.14 in 10.0 mi NW 9.2 mph - N/A   Overcast
9:35 PM 24.8 °F 15.3 °F 16.5 °F 71% 30.15 in 10.0 mi NW 9.2 mph - N/A   Mostly Cloudy
9:55 PM 24.6 °F 15.8 °F 16.7 °F 72% 30.15 in 10.0 mi NW 8.1 mph - N/A   Overcast
10:15 PM 24.8 °F 16.9 °F 17.1 °F 72% 30.16 in 10.0 mi NW 6.9 mph - N/A   Overcast
10:35 PM 24.8 °F 16.1 °F 17.1 °F 72% 30.16 in 10.0 mi NW 8.1 mph - N/A   Overcast
10:55 PM 24.6 °F 13.8 °F 16.5 °F 71% 30.16 in 10.0 mi NW 11.5 mph - N/A   Overcast
11:15 PM 23.9 °F 15.0 °F 16.5 °F 73% 30.17 in 10.0 mi NW 8.1 mph - N/A   Overcast
11:35 PM 23.5 °F 16.4 °F 17.2 °F 77% 30.17 in 10.0 mi NW 5.8 mph - N/A   Overcast
11:55 PM 23.0 °F 15.8 °F 17.1 °F 78% 30.18 in 10.0 mi NW 5.8 mph - N/A   Overcast